Weather reports worldwide

Advertisment
Manston, United Kingdom (3797): temperature & dewpoint: 16.07.2017 19:00:00 - 22.07.2017 19:00:00 (BST)Manston, United Kingdom (3797): temperature -20cm & temperature -100cm: 16.07.2017 19:00:00 - 22.07.2017 19:00:00 (BST)Manston, United Kingdom (3797): wind speed & gusts: 16.07.2017 19:00:00 - 22.07.2017 19:00:00 (BST)Manston, United Kingdom (3797): wind direction: 16.07.2017 19:00:00 - 22.07.2017 19:00:00 (BST)Manston, United Kingdom (3797): reduced air pressure: 16.07.2017 19:00:00 - 22.07.2017 19:00:00 (BST)Manston, United Kingdom (3797): visibility: 16.07.2017 19:00:00 - 22.07.2017 19:00:00 (BST)Manston, United Kingdom (3797): sunshine duration: 16.07.2017 19:00:00 - 22.07.2017 19:00:00 (BST)Manston, United Kingdom (3797): precipitation: 16.07.2017 19:00:00 - 22.07.2017 19:00:00 (BST)
Date & Time tt [°C] td [°C] tt -20cm [°C] tt -100cm [°C] ff [km/h] ff [kn] fx [km/h] fx [kn] dd ppp [hPa] vv [km] sd [min] rr [mm]
22.07.2017 19:00:00 15,6 10,6 - - 16 9 - - SSW 1010,3 27 0 0,0
22.07.2017 18:00:00 16,4 11,6 - - 21 11 46 25 WSW 1010,1 40 6 0,0
22.07.2017 17:00:00 18,3 10,0 - - 28 15 - - SSW 1009,8 23 0 0,0
22.07.2017 16:00:00 17,3 10,5 - - 22 12 - - SSW 1009,8 40 0 0,0
22.07.2017 15:00:00 18,4 11,4 - - 29 16 - - S 1010,0 30 12 0,0
22.07.2017 14:00:00 18,8 10,6 - - 29 16 - - S 1009,8 19 60 0,0
22.07.2017 13:00:00 19,9 11,7 - - 31 17 - - S 1009,6 30 42 0,0
22.07.2017 12:00:00 20,0 11,5 - - 22 12 - - SSW 1009,5 35 54 0,0
22.07.2017 11:00:00 19,0 13,4 - - 21 11 - - SSW 1009,5 27 18 0,0
22.07.2017 10:00:00 17,5 13,6 18,9 16,4 18 10 - - SW 1009,1 30 0 0,0
22.07.2017 09:00:00 16,1 13,6 - - 21 11 - - SSW 1008,9 23 18 0,0
22.07.2017 08:00:00 15,4 14,4 - - 15 8 - - SSW 1008,5 30 6 0,0
22.07.2017 07:00:00 15,2 14,6 - - 15 8 - - SSW 1007,9 21 0 1,6
22.07.2017 06:00:00 15,1 14,6 - - 18 10 - - SSE 1007,4 6 0 0,6
22.07.2017 05:00:00 15,0 13,6 - - 21 11 - - S 1007,4 19 0 0,2
22.07.2017 04:00:00 16,2 13,7 - - 18 10 - - SSW 1007,3 25 - 0,0
22.07.2017 03:00:00 17,3 13,6 - - 15 8 - - SE 1006,7 40 0 0,0
22.07.2017 02:00:00 16,9 12,6 - - 11 6 - - S 1007,5 35 0 0,0
22.07.2017 01:00:00 17,6 13,7 - - 18 10 - - SE 1007,7 25 - 0,0
22.07.2017 00:00:00 17,3 13,4 - - 18 10 - - SE 1008,0 40 0 0,0
21.07.2017 23:00:00 17,6 12,9 - - 15 8 - - ESE 1008,1 50 0 0,0
21.07.2017 22:00:00 16,7 11,4 - - 13 7 - - ESE 1008,5 50 0 0,0
21.07.2017 21:00:00 17,2 10,3 - - 11 6 - - SSE 1008,3 25 18 0,0
21.07.2017 20:00:00 18,8 11,9 - - 15 8 - - SSE 1008,1 35 54 0,0
21.07.2017 19:00:00 21,5 9,0 - - 18 10 - - S 1008,1 35 60 0,0
21.07.2017 18:00:00 22,3 8,0 - - 22 12 - - SSW 1008,4 22 60 0,0
21.07.2017 17:00:00 22,3 8,1 - - 29 16 - - SSW 1009,0 28 60 0,0
21.07.2017 16:00:00 22,1 10,1 - - 26 14 - - SSW 1009,4 27 54 0,0
21.07.2017 15:00:00 21,0 9,6 - - 28 15 - - S 1009,9 28 60 0,0
21.07.2017 14:00:00 21,1 11,0 - - 29 16 - - S 1010,2 40 48 0,0
21.07.2017 13:00:00 20,2 10,4 - - 29 16 50 27 S 1010,5 35 42 0,0
21.07.2017 12:00:00 20,6 11,3 - - 29 16 48 26 S 1010,8 28 30 0,0
21.07.2017 11:00:00 19,2 11,6 - - 29 16 - - SE 1011,2 35 12 0,0
21.07.2017 10:00:00 17,9 10,3 18,7 16,4 29 16 - - SSE 1011,7 23 54 0,0
21.07.2017 09:00:00 17,5 12,4 - - 26 14 - - SSE 1012,0 29 60 0,0
21.07.2017 08:00:00 16,4 13,5 - - 21 11 - - S 1012,1 19 48 0,0
21.07.2017 07:00:00 15,1 12,2 - - 11 6 - - S 1011,9 17 60 0,0
21.07.2017 06:00:00 12,9 11,3 - - 9 5 - - SSE 1012,1 18 0 0,0
21.07.2017 05:00:00 11,8 10,4 - - 11 6 - - SSE 1012,4 18 0 0,0
21.07.2017 04:00:00 11,6 10,2 - - 9 5 - - S 1012,4 16 0 0,0
21.07.2017 03:00:00 11,4 9,8 - - 9 5 - - S 1012,8 17 0 0,0
21.07.2017 02:00:00 12,0 10,3 - - 11 6 - - SSW 1012,9 17 0 0,0
21.07.2017 01:00:00 12,1 10,2 - - 11 6 - - SSW 1012,6 20 - 0,0
21.07.2017 00:00:00 12,9 10,4 - - 11 6 - - SSW 1012,5 22 0 0,0
20.07.2017 23:00:00 13,7 10,8 - - 15 8 - - SW 1012,3 20 0 0,0
20.07.2017 22:00:00 14,5 10,6 - - 15 8 - - SW 1012,4 28 0 0,0
20.07.2017 21:00:00 15,4 10,4 - - 21 11 - - SW 1011,9 28 0 0,0
20.07.2017 20:00:00 16,7 10,5 - - 26 14 - - SW 1011,5 29 0 0,0
20.07.2017 19:00:00 18,6 9,7 - - 26 14 - - SW 1010,7 40 0 0,0
20.07.2017 18:00:00 19,6 7,7 - - 28 15 - - W 1010,1 40 30 0,0
20.07.2017 17:00:00 19,6 9,4 - - 26 14 - - WSW 1009,6 45 12 0,0
20.07.2017 16:00:00 19,0 12,9 - - 22 12 - - WNW 1009,2 50 30 0,0
20.07.2017 15:00:00 19,9 14,4 - - 31 17 46 25 W 1008,7 40 18 0,0
20.07.2017 14:00:00 17,3 14,3 - - 34 18 52 28 W 1007,7 30 0 0,0
20.07.2017 13:00:00 21,2 16,9 - - 28 15 - - SW 1006,2 29 6 0,0
20.07.2017 12:00:00 21,6 16,7 - - 31 17 - - SSW 1006,0 24 12 0,0
20.07.2017 11:00:00 19,6 17,7 - - 22 12 - - SSW 1006,2 20 6 0,0
20.07.2017 10:00:00 18,2 17,4 20,0 16,2 18 10 - - SSW 1006,2 11 0 0,4
20.07.2017 09:00:00 19,2 16,0 - - 26 14 - - SSW 1006,1 35 18 0,0
20.07.2017 08:00:00 19,2 15,8 - - 28 15 - - SSW 1006,0 30 24 0,0
20.07.2017 07:00:00 18,9 16,5 - - 24 13 - - SSW 1006,0 25 24 0,0
20.07.2017 06:00:00 18,0 17,1 - - 15 8 - - S 1006,1 9 0 0,0
20.07.2017 05:00:00 17,0 16,3 - - 15 8 - - S 1006,3 6 0 0,0
20.07.2017 04:00:00 17,3 16,1 - - 11 6 - - S 1006,5 9 0 0,0
20.07.2017 03:00:00 17,9 16,3 - - 13 7 - - S 1007,0 11 0 0,0
20.07.2017 02:00:00 18,3 16,4 - - 11 6 - - SSW 1007,1 16 0 0,0
20.07.2017 01:00:00 18,4 16,2 - - 13 7 - - SW 1007,1 17 - 0,0
20.07.2017 00:00:00 17,9 16,0 - - 8 4 - - SSE 1007,4 18 0 0,0
19.07.2017 23:00:00 18,5 16,2 - - 8 4 - - SW 1007,4 19 0 0,0
19.07.2017 22:00:00 19,1 16,4 - - 13 7 - - SW 1007,4 22 0 0,0
19.07.2017 21:00:00 20,0 16,5 - - 16 9 - - SW 1007,2 30 0 0,0
19.07.2017 20:00:00 21,5 16,4 - - 26 14 - - SW 1007,1 40 24 0,0
19.07.2017 19:00:00 21,9 16,9 - - 28 15 50 27 SW 1006,9 40 18 0,0
19.07.2017 18:00:00 22,3 17,2 - - 31 17 48 26 SW 1006,6 35 0 0,0
19.07.2017 17:00:00 23,9 16,7 - - 39 21 50 27 SW 1006,3 35 30 0,0
19.07.2017 16:00:00 25,5 16,7 - - 34 18 54 29 SW 1006,3 35 60 0,0
19.07.2017 15:00:00 26,3 17,1 - - 31 17 48 26 SW 1006,2 15 60 0,0
19.07.2017 14:00:00 25,9 17,2 - - 39 21 52 28 SW 1006,2 19 60 0,0
19.07.2017 13:00:00 25,5 17,2 - - 37 20 54 29 SW 1006,3 14 60 0,0
19.07.2017 12:00:00 25,0 19,5 - - 31 17 50 27 SSW 1006,0 16 48 0,0
19.07.2017 11:00:00 24,7 18,9 - - 28 15 - - SSW 1005,6 10 36 0,0
19.07.2017 10:00:00 23,6 18,2 19,7 16,2 26 14 - - SSW 1005,3 19 12 0,0
19.07.2017 09:00:00 22,3 18,1 - - 18 10 - - SE 1005,4 30 42 0,0
19.07.2017 08:00:00 20,9 16,9 - - 18 10 - - SE 1005,2 15 54 0,0
19.07.2017 07:00:00 20,5 17,0 - - 13 7 - - E 1005,5 15 24 0,0
19.07.2017 06:00:00 18,6 16,3 - - 9 5 - - ENE 1006,0 11 0 0,0
19.07.2017 05:00:00 19,2 16,3 - - 15 8 - - NE 1006,7 16 0 0,0
19.07.2017 04:00:00 20,1 15,8 - - 9 5 50 27 N 1007,6 20 0 0,4
19.07.2017 03:00:00 20,0 16,3 - - 34 18 50 27 E 1006,6 18 0 0,0
19.07.2017 02:00:00 20,4 15,8 - - 31 17 50 27 E 1008,4 25 0 0,0
19.07.2017 01:00:00 21,2 15,3 - - 34 18 52 28 E 1009,2 26 - 0,0
19.07.2017 00:00:00 21,0 15,7 - - 31 17 46 25 E 1010,2 22 0 0,0
18.07.2017 23:00:00 21,6 15,6 - - 31 17 46 25 E 1011,2 24 0 0,0
18.07.2017 22:00:00 21,5 15,4 - - 34 18 - - E 1011,7 29 0 0,0
18.07.2017 21:00:00 20,9 15,3 - - 26 14 - - ENE 1012,0 24 0 0,0
18.07.2017 20:00:00 20,3 15,7 - - 24 13 - - ENE 1012,6 16 0 0,0
18.07.2017 19:00:00 20,6 15,5 - - 28 15 - - ENE 1013,0 21 0 0,0
18.07.2017 18:00:00 21,1 15,6 - - 26 14 - - ENE 1014,0 19 18 0,0
18.07.2017 17:00:00 22,1 15,2 - - 26 14 - - ENE 1014,7 16 36 0,0
18.07.2017 16:00:00 22,1 15,1 - - 29 16 46 25 ENE 1015,3 13 60 0,0
18.07.2017 15:00:00 22,9 15,8 - - 28 15 46 25 ENE 1015,8 19 60 0,0
18.07.2017 14:00:00 22,8 14,3 - - 26 14 46 25 ENE 1016,3 21 60 0,0
18.07.2017 13:00:00 22,3 14,9 - - 31 17 - - ENE 1016,8 29 60 0,0
18.07.2017 12:00:00 22,2 14,2 - - 28 15 - - ENE 1017,7 27 60 0,0
18.07.2017 11:00:00 21,2 13,8 - - 26 14 - - ENE 1018,1 35 54 0,0
18.07.2017 10:00:00 20,6 14,7 19,2 16,0 26 14 - - ENE 1018,7 30 24 0,0
18.07.2017 09:00:00 19,9 14,9 - - 22 12 - - E 1019,1 30 18 0,0
18.07.2017 08:00:00 18,8 14,3 - - 22 12 - - E 1019,3 17 24 0,0
18.07.2017 07:00:00 18,0 15,2 - - 21 11 - - E 1019,6 18 0 0,0
18.07.2017 06:00:00 17,5 15,1 - - 21 11 - - E 1019,8 20 - 0,0
18.07.2017 05:00:00 17,4 15,2 - - 22 12 - - ENE 1020,1 27 0 0,0
18.07.2017 04:00:00 17,1 14,7 - - 18 10 - - E 1020,4 35 - 0,0
18.07.2017 03:00:00 15,6 13,3 - - 13 7 - - ENE 1020,8 45 0 0,0
18.07.2017 02:00:00 15,4 13,2 - - 11 6 - - ENE 1021,3 30 0 0,0
18.07.2017 01:00:00 15,3 13,2 - - 9 5 - - ENE 1021,8 30 - 0,0
18.07.2017 00:00:00 15,5 13,2 - - 9 5 - - ENE 1022,0 35 0 0,0
17.07.2017 23:00:00 15,0 12,9 - - 9 5 - - E 1022,3 27 0 0,0
17.07.2017 22:00:00 15,7 13,7 - - 9 5 - - E 1022,3 40 0 0,0
17.07.2017 21:00:00 16,0 12,8 - - 9 5 - - E 1022,2 45 0 0,0
17.07.2017 20:00:00 18,3 13,3 - - 13 7 - - E 1022,1 35 30 0,0
17.07.2017 19:00:00 20,1 13,5 - - 15 8 - - E 1022,0 35 54 0,0
17.07.2017 18:00:00 21,0 12,8 - - 16 9 - - E 1022,0 45 60 0,0
17.07.2017 17:00:00 21,7 13,5 - - 11 6 - - ENE 1022,5 35 60 0,0
17.07.2017 16:00:00 21,9 14,5 - - 13 7 - - ENE 1022,9 40 60 0,0
17.07.2017 15:00:00 22,1 13,9 - - - - - - - 1023,1 30 60 -
17.07.2017 14:00:00 - - - - - - - - - - - 54 -
17.07.2017 13:00:00 - - - - - - - - - - - 60 -
17.07.2017 12:00:00 20,1 15,1 - - 13 7 - - NE 1023,9 28 36 0,0
17.07.2017 11:00:00 20,0 16,1 - - 13 7 - - NNE 1023,9 30 6 0,0
17.07.2017 10:00:00 19,6 16,3 18,9 16,0 11 6 - - NE 1024,0 30 18 0,0
17.07.2017 09:00:00 18,5 16,5 - - 13 7 - - NE 1023,9 27 0 0,0
17.07.2017 08:00:00 17,7 16,3 - - 9 5 - - NE 1023,9 22 0 0,0
17.07.2017 07:00:00 17,7 17,1 - - 9 5 - - NNE 1023,4 11 0 0,0
17.07.2017 06:00:00 17,6 17,0 - - 13 7 - - N 1023,1 10 0 0,0
17.07.2017 05:00:00 17,8 17,4 - - 15 8 - - N 1022,9 12 0 0,0
17.07.2017 04:00:00 17,9 17,7 - - 9 5 - - N 1022,7 6 0 0,0
17.07.2017 03:00:00 17,8 17,5 - - 9 5 - - N 1022,6 3,7 - 0,0
17.07.2017 02:00:00 18,1 17,9 - - 9 5 - - NNE 1022,5 3,4 0 0,0
17.07.2017 01:00:00 18,6 18,2 - - 9 5 - - NNE 1022,6 3,2 - 0,0
17.07.2017 00:00:00 19,0 18,4 - - 0 0 - - N 1022,7 4,7 0 1,6
16.07.2017 23:00:00 19,5 18,0 - - 5 3 - - ENE 1022,5 20 0 0,0
16.07.2017 22:00:00 19,6 17,8 - - 8 4 - - NE 1022,3 35 0 0,0
16.07.2017 21:00:00 21,1 17,6 - - 4 2 - - ESE 1022,0 35 0 0,0
16.07.2017 20:00:00 21,8 17,5 - - 9 5 - - NNE 1021,9 35 0 0,0
16.07.2017 19:00:00 24,5 17,1 - - 15 8 - - WSW 1021,8 40 6 0,0

tt = temperature
td = dewpoint
tt -20cm = temperature -20cm
tt -100cm = temperature -100cm
ff = wind speed
fx = gusts
dd = wind direction
ppp = reduced air pressure
vv = visibility
sd = sunshine duration
rr = precipitation

Next stations